Regional Weather Roundup
Issued by NWS

Home | Current Version | Previous Version | Graphics & Text | Print | Product List | Glossary On
Versions: 1 2 3 4 5 6 7 8 9 10 11 12 13 14 15 16 17 18 19 20 21 22 23 24 25 26 27 28 29 30 31 32 33 34 35 36 37 38 39 40 41 42 43 44 45 46 47 48 49 50
231
ASUS45 KSLC 200510
RWRUT

UTAH REGIONAL WEATHER ROUNDUP
NATIONAL WEATHER SERVICE SALT LAKE CITY UT
1000 PM MST THU JAN 19 2017

UTZ001>011-023>025-200600-

NORTHERN UTAH

CITY           SKY/WX    TMP DP  RH WIND       PRES   REMARKS
BRIGHAM CITY     N/A     30  28  93 CALM      29.71F
HILL AFB       FOG       31  30  99 CALM      29.69F VSB 1/4
LOGAN          CLOUDY    27  27 100 CALM      29.70F FOG
OGDEN          FOG       28  27  96 NW3       29.69F VSB 3/4
SALT LAKE CITY CLOUDY    30  29  96 S3        29.70F FOG
TOOELE VALLEY  FOG       28  28 100 W3        29.71F VSB 1
WENDOVER       CLOUDY    23  21  93 CALM      29.72S
HEBER CITY     LGT SNOW  30  30 100 CALM      29.65F
WEST JORDAN    CLOUDY    31  31 100 CALM      29.70F VSB 1/2

$$

UTZ011>015-024>027-200600-

CENTRAL/NORTHEAST UTAH

CITY           SKY/WX    TMP DP  RH WIND       PRES   REMARKS
PROVO AIRPORT  MIX PCPN  32  30  92 CALM      29.70F VSB 1
MOAB/CANYONLAN CLOUDY    31  31 100 NW7       29.68F WCI  24
DELTA          CLOUDY    32  32 100 NW5       29.68F VSB 1/4 WCI  27
PRICE          LGT SNOW  28  28 100 CALM      29.66F FOG
RICHFIELD      CLOUDY    34  34 100 NW1       29.68F FOG
ROOSEVELT      LGT SNOW  19  16  86 CALM      29.76F
VERNAL         LGT SNOW  18  14  84 SE5       29.73F FOG     WCI  11

$$

UTZ013>016-019>022-027-200600-

SOUTHERN UTAH

CITY           SKY/WX    TMP DP  RH WIND       PRES   REMARKS
BRYCE CANYON   SNOW      26  24  92 SE12      29.67S VSB 1/4 WCI  16
CEDAR CITY     LGT SNOW  32  29  88 S9        29.68F FOG     WCI  24
MILFORD        LGT SNOW  33  31  92 N12       29.69S FOG     WCI  24
ST GEORGE      CLOUDY    39  34  81 SE7       29.78F WCI  34
HANKSVILLE     CLOUDY    32  32 100 MISG      29.71F
KANAB          CLOUDY    34  34 100 SW3       29.78S FOG
BLANDING       CLOUDY    31  31 100 S7        29.78F WCI  24

$$

REGIONAL REPORTS     COLORADO/ARIZONA

CITY           SKY/WX    TMP DP  RH WIND       PRES   REMARKS
CRAIG, CO      LGT SNOW  28  25  88 CALM      29.66F FOG
GRAND JUNCTION CLOUDY    32  32 100 E3        29.69F
RIFLE, CO      LGT SNOW  31  31 100 CALM      29.68F FOG
MONTROSE, CO   FOG       31  31 100 CALM      29.71F VSB 3/4
CORTEZ, CO     LGT SNOW  32  32 100 CALM      29.73F FOG
COLORADO CITY  SNOW      34  34 100 CALM      29.77S VSB 1/2
PAGE, AZ       CLOUDY    38  33  82 SW3       29.72R
GRAND CANYON   SNOW      28  28 100 SW9       29.78S VSB 1/2 WCI  19
KINGMAN, AZ    MOCLDY    39  36  89 SW14      29.80F WCI  31
FLAGSTAFF, AZ  LGT SNOW  28  26  92 SW16      29.77F FOG     WCI  16

$$

REGIONAL REPORTS    NEVADA/IDAHO/WYOMING

CITY           SKY/WX    TMP DP  RH WIND       PRES   REMARKS
LAS VEGAS, NV  PTCLDY    50  37  61 W3        29.75R
ELY, NY        CLEAR     12  11  95 S10       29.69F WCI  -1
ELKO, NV       CLEAR     22  18  85 CALM      29.67F
POCATELLO, ID  MOCLDY    30  25  81 SW12      29.67S WCI  20
BURLEY, ID     FLURRIES  34  31  88 S6        29.65F WCI  29
FORT BRIDGER,  CLOUDY    28  28 100 SW12      29.67F WCI  18
EVANSTON, WY   LGT SNOW  27  23  85 CALM      29.65F FOG
ROCK SPRINGS,  LGT SNOW  22  20  92 W8        29.63F FOG     WCI  12

$$




USA.gov is the U.S. government's official web portal to all federal, state and local government web resources and services.